VU3ZAG-WX Weather Reports


Display with metric or nautical units.
time (UTC)temp
F
wind
direction
speed
MPH
gust
MPH
rain 1hr
in
rain 24hr
in
rain mn
in
humidity
%
barometer
mb
20260504045857 100 0.0 0.0 0.00 0.00 0.00 50 1009.8
20260504044837 100 0.0 0.0 0.00 0.00 0.00 49 1009.8
20260504043832 100 0.0 0.0 0.00 0.00 0.00 49 1009.9
20260504042826 99 0.0 0.0 0.00 0.00 0.00 49 1009.9
20260504041822 99 0.0 0.0 0.00 0.00 0.00 48 1009.9
20260504040816 99 0.0 0.0 0.00 0.00 0.00 50 1009.9
20260504035809 99 0.0 0.0 0.00 0.00 0.00 53 1009.9
20260504034802 99 0.0 0.0 0.00 0.00 0.00 49 1009.9
20260504033754 99 0.0 0.0 0.00 0.00 0.00 48 1009.8
20260504032749 98 0.0 0.0 0.00 0.00 0.00 49 1009.8
20260504031742 97 0.0 0.0 0.00 0.00 0.00 51 1009.7
20260504030735 96 0.0 0.0 0.00 0.00 0.00 54 1009.6
20260504025729 95 0.0 0.0 0.00 0.00 0.00 56 1009.5
20260504024721 96 0.0 0.0 0.00 0.00 0.00 55 1009.3
20260504023715 95 0.0 0.0 0.00 0.00 0.00 54 1009.2
20260504022710 95 0.0 0.0 0.00 0.00 0.00 57 1009.1
20260504021704 95 0.0 0.0 0.00 0.00 0.00 56 1008.9
20260504020659 94 0.0 0.0 0.00 0.00 0.00 54 1008.8
20260504015654 94 0.0 0.0 0.00 0.00 0.00 57 1008.6
20260504014648 93 0.0 0.0 0.00 0.00 0.00 60 1008.5
20260504013643 93 0.0 0.0 0.00 0.00 0.00 58 1008.4
20260504012638 92 0.0 0.0 0.00 0.00 0.00 60 1008.3
20260504011633 92 0.0 0.0 0.00 0.00 0.00 61 1008.2
20260504010628 92 0.0 0.0 0.00 0.00 0.00 59 1008.1
20260504005623 92 0.0 0.0 0.00 0.00 0.00 61 1008.0
20260504004618 91 0.0 0.0 0.00 0.00 0.00 64 1007.9
20260504003612 92 0.0 0.0 0.00 0.00 0.00 61 1007.8
20260504002607 92 0.0 0.0 0.00 0.00 0.00 61 1007.8
20260504001602 91 0.0 0.0 0.00 0.00 0.00 62 1007.7
20260504000556 91 0.0 0.0 0.00 0.00 0.00 62 1007.7
20260503235551 90 0.0 0.0 0.00 0.00 0.00 66 1007.6
20260503234545 91 0.0 0.0 0.00 0.00 0.00 65 1007.6
20260503233539 91 0.0 0.0 0.00 0.00 0.00 61 1007.6
20260503232534 91 0.0 0.0 0.00 0.00 0.00 63 1007.6
20260503231529 91 0.0 0.0 0.00 0.00 0.00 65 1007.6
20260503230524 91 0.0 0.0 0.00 0.00 0.00 66 1007.6
20260503225517 91 0.0 0.0 0.00 0.00 0.00 64 1007.6
20260503224512 91 0.0 0.0 0.00 0.00 0.00 66 1007.6
20260503223505 92 0.0 0.0 0.00 0.00 0.00 62 1007.7
20260503222459 92 0.0 0.0 0.00 0.00 0.00 62 1007.7
20260503221454 92 0.0 0.0 0.00 0.00 0.00 60 1007.7
20260503220448 92 0.0 0.0 0.00 0.00 0.00 63 1007.8
20260503215443 92 0.0 0.0 0.00 0.00 0.00 64 1007.8
20260503214435 93 0.0 0.0 0.00 0.00 0.00 63 1007.9
20260503213430 93 0.0 0.0 0.00 0.00 0.00 64 1008.0
20260503212425 93 0.0 0.0 0.00 0.00 0.00 59 1008.1
20260503211418 93 0.0 0.0 0.00 0.00 0.00 61 1008.2
20260503210412 94 0.0 0.0 0.00 0.00 0.00 63 1008.3
20260503205406 94 0.0 0.0 0.00 0.00 0.00 59 1008.5
20260503204401 95 0.0 0.0 0.00 0.00 0.00 57 1008.6
20260503203356 94 0.0 0.0 0.00 0.00 0.00 55 1008.8
20260503202350 94 0.0 0.0 0.00 0.00 0.00 56 1008.9
20260503201344 94 0.0 0.0 0.00 0.00 0.00 52 1009.0
20260503200338 93 0.0 0.0 0.00 0.00 0.00 56 1009.1
20260503195332 92 0.0 0.0 0.00 0.00 0.00 59 1009.3
20260503194327 92 0.0 0.0 0.00 0.00 0.00 59 1009.4
20260503193321 93 0.0 0.0 0.00 0.00 0.00 59 1009.6
20260503192316 93 0.0 0.0 0.00 0.00 0.00 59 1009.7
20260503191310 93 0.0 0.0 0.00 0.00 0.00 55 1009.8
20260503190304 93 0.0 0.0 0.00 0.00 0.00 56 1009.8
20260503185259 92 0.0 0.0 0.00 0.00 0.00 59 1009.8
20260503184253 92 0.0 0.0 0.00 0.00 0.00 59 1009.9
20260503183248 93 0.0 0.0 0.00 0.00 0.00 59 1009.9
20260503182242 93 0.0 0.0 0.00 0.00 0.00 58 1009.9
20260503181235 93 0.0 0.0 0.00 0.00 0.00 57 1009.9
20260503180230 93 0.0 0.0 0.00 0.00 0.00 59 1009.9
20260503175224 93 0.0 0.0 0.00 0.00 0.00 58 1009.9
20260503174217 93 0.0 0.0 0.00 0.00 0.00 58 1009.8
20260503173211 93 0.0 0.0 0.00 0.00 0.00 59 1009.8
20260503172206 93 0.0 0.0 0.00 0.00 0.00 60 1009.8
20260503171159 93 0.0 0.0 0.00 0.00 0.00 58 1009.8
20260503170153 94 0.0 0.0 0.00 0.00 0.00 58 1009.8
20260503160119 94 0.0 0.0 0.00 0.00 0.00 57 1009.5
20260503130944 96 0.0 0.0 0.00 0.00 0.00 58 1007.5
20260503081522 102 0.0 0.0 0.00 0.00 0.00 50 1008.4
20260503080511 102 0.0 0.0 0.00 0.00 0.00 48 1008.5